Location: *
(46.1866°S, 178.5290°W)
Time: 05:46:24
(UTC+00:00)

CZ-4B R/B - Pass Details

Date: 25 September 2021
Orbit: 809 x 881 km, 99.1° (Epoch: 17 October)

Event Time Altitude Azimuth Distance (km) Brightness Sun altitude
Rises 07:34:42 0° 170° (S) 3,376 6.5 -17.7°
Reaches altitude 10° 07:37:07 10° 174° (S) 2,435 5.8 -18.1°
Maximum altitude 07:42:18 52° 249° (WSW) 1,017 4.0 -18.9°
Drops below altitude 10° 07:47:28 10° 323° (NW) 2,412 5.7 -19.8°
Sets 07:49:50 0° 328° (NNW) 3,341 6.4 -20.1°
